Location: Brachbach
(49.1847°N, 9.7240°E)
Time: 01:38:12
(UTC+00:00)

ARIANE 6 FM1 Upper Stage - Pass Details

Date: 27 January 2026
Orbit: 522 x 609 km, 62.0° (Epoch: 13 February)

Event Time Altitude Azimuth Distance (km) Brightness Sun altitude
Rises 19:13:03 0° 273° (W) 2,687 7.3 -29.9°
Reaches altitude 10° 19:15:47 10° 292° (WNW) 1,785 6.1 -30.3°
Enters shadow 19:17:45 18° 320° (NW) 1,366 5.1 -30.6°
